sat.trackr.live / text

‹ back to catalog

STARLINK-3140

NORAD 49460 · 2021-104BE

PAYLOAD ACTIVE UNKNOWN

§ Identity

Operator
Country
US
Launch date
2021-11-13
Launch site
AFETR
Launch vehicle
Mass (kg)
RCS (m²)

Purposes: comms

External: N2YO · Heavens-Above · Gunter

§ Orbital elements

Epoch: 2026-05-25T05:22:16.984416Z

Period
95.44 min
Inclination
53.2137°
Eccentricity
0.0001287
Mean motion
15.08844428 rev/d
Perigee alt
538.8 km
Apogee alt
540.6 km
Semi-major
6,917.9 km
B*
-3.2060e-5
RAAN
235.5459°
Arg perigee
99.0132°
Mean anomaly
261.1006°
Rev number
25,032

§ Raw data

STARLINK-31401 49460U 21104BE  26145.22380769 -.00000798  00000+0 -32060-4 0  99962 49460  53.2137 235.5459 0001287  99.0132 261.1006 15.08844428250323

JSON: /api/v1/satellites/49460 · /tle

For live sub-satellite position, see the globe view (requires WebGL).

§ Visibility from observer

Set your observer location to see the next 7 days of passes ≥ 10°. The values pass through the URL so the page stays shareable.

No JS? Fill the form by hand. The geolocation button needs JavaScript.